This is the latest recevied weather packets stored in our database for station/object WB4ZUT. If no packets are shown the sender has not sent any weather packets the latest 10 day(s).
| Time | Temp. | Humidity | Pressure | Rain* | Wind** | Luminosity | Snow |
|---|---|---|---|---|---|---|---|
| 1778115104 | 14.44° C | 65% | 1015 hPa | 0 mm | - | 0 W/m² | - |
| 1778114802 | 14.44° C | 65% | 1014.8 hPa | 0 mm | - | 1 W/m² | - |
| 1778114499 | 14.44° C | 64% | 1015 hPa | 0 mm | - | 3 W/m² | - |
| 1778114195 | 14.44° C | 65% | 1014.7 hPa | 0 mm | - | 5 W/m² | - |
| 1778113890 | 15° C | 64% | 1014.9 hPa | 0 mm | - | 8 W/m² | - |
| 1778113587 | 15° C | 64% | 1014.8 hPa | 0 mm | - | 13 W/m² | - |
| 1778113283 | 15° C | 63% | 1014.6 hPa | 0 mm | - | 16 W/m² | - |
| 1778112980 | 15° C | 62% | 1014.7 hPa | 0 mm | - | 22 W/m² | - |
| 1778112677 | 15° C | 62% | 1014.5 hPa | 0 mm | - | 36 W/m² | - |
| 1778112373 | 15° C | 61% | 1014.7 hPa | 0 mm | - | 42 W/m² | - |
| 1778112069 | 15° C | 61% | 1014.5 hPa | 0 mm | - | 43 W/m² | - |
| 1778111766 | 15.56° C | 60% | 1014.3 hPa | 0 mm | - | 55 W/m² | - |
| 1778111466 | 15.56° C | 59% | 1014.2 hPa | 0 mm | - | 75 W/m² | - |
| 1778111164 | 16.11° C | 59% | 1014.6 hPa | 0 mm | - | 74 W/m² | - |
| 1778110861 | 16.11° C | 57% | 1014.3 hPa | 0 mm | - | 97 W/m² | - |
| 1778110558 | 16.11° C | 58% | 1014.5 hPa | 0 mm | - | 142 W/m² | - |
| 1778110255 | 16.11° C | 59% | 1014.5 hPa | 0 mm | - | 122 W/m² | - |
| 1778109951 | 16.11° C | 57% | 1014.6 hPa | 0 mm | - | 138 W/m² | - |
| 1778109647 | 16.11° C | 58% | 1014.4 hPa | 0 mm | - | 164 W/m² | - |
| 1778109344 | 15.56° C | 60% | 1014.4 hPa | 0 mm | - | 115 W/m² | - |
| 1778109042 | 16.11° C | 60% | 1014.7 hPa | 0 mm | - | 110 W/m² | - |
| 1778108738 | 16.67° C | 60% | 1014.6 hPa | 0 mm | - | 206 W/m² | - |
| 1778108436 | 16.67° C | 60% | 1014.4 hPa | 0 mm | - | 216 W/m² | - |
| 1778108132 | 16.67° C | 61% | 1014.5 hPa | 0 mm | - | 229 W/m² | - |
| 1778107829 | 16.11° C | 62% | 1014.5 hPa | 0 mm | - | 287 W/m² | - |
* Rain latest hour (hover to see other rain measurements)
** Current wind speed in m/s (hover to see current wind gust speed)